Total_Precipitation_Accumulation
0.03 0.02 0.03 0.03 0.02 0.01 0.01 0.01 0.01 0.00 0.00 0.00 0.00 0.00 0.00 0.00 0.00 0.00 0.00 0.00 0.00 0.00 0.01 0.02 0.02 0.03 0.05 0.05 0.06 0.06 0.08 0.12 0.16 0.21 0.24 0.25 0.26 0.27 0.29 0.33 0.38 0.41 0.43 0.44
0.02 0.01 0.02 0.02 0.01 0.01 0.01 0.01 0.00 0.00 0.00 0.00 0.00 0.00 0.00 0.00 0.00 0.01 0.01 0.01 0.01 0.01 0.02 0.04 0.06 0.09 0.10 0.10 0.12 0.16 0.22 0.27 0.30 0.30 0.31 0.33 0.33 0.34 0.37 0.39 0.40 0.41 0.43 0.43
0.03 0.01 0.03 0.03 0.01 0.00 0.00 0.00 0.00 0.00 0.00 0.00 0.00 0.00 0.00 0.01 0.01 0.02 0.02 0.02 0.02 0.03 0.04 0.06 0.15 0.20 0.17 0.14 0.17 0.23 0.29 0.31 0.30 0.28 0.28 0.28 0.29 0.32 0.34 0.32 0.29 0.27 0.27 0.27
0.05 0.05 0.08 0.02 0.00 0.00 0.00 0.00 0.00 0.00 0.00 0.00 0.00 0.00 0.00 0.01 0.02 0.02 0.04 0.05 0.05 0.05 0.05 0.07 0.13 0.15 0.14 0.14 0.17 0.20 0.25 0.29 0.30 0.29 0.28 0.25 0.22 0.22 0.22 0.20 0.17 0.15 0.13 0.11
0.09 0.07 0.04 0.01 0.00 0.01 0.00 0.00 0.00 0.00 0.00 0.00 0.00 0.00 0.01 0.03 0.02 0.03 0.04 0.05 0.05 0.05 0.05 0.06 0.07 0.08 0.09 0.11 0.14 0.18 0.23 0.25 0.25 0.24 0.25 0.24 0.19 0.16 0.14 0.12 0.11 0.09 0.07 0.05
0.11 0.07 0.03 0.00 0.00 0.00 0.00 0.01 0.01 0.01 0.01 0.02 0.05 0.16 0.08 0.06 0.03 0.03 0.03 0.02 0.03 0.03 0.03 0.04 0.05 0.07 0.06 0.07 0.09 0.12 0.15 0.15 0.13 0.12 0.13 0.12 0.08 0.06 0.06 0.06 0.07 0.06 0.04 0.03
0.10 0.05 0.01 0.00 0.00 0.00 0.02 0.02 0.02 0.01 0.02 0.06 0.13 0.21 0.11 0.05 0.04 0.03 0.02 0.01 0.01 0.03 0.04 0.06 0.06 0.06 0.04 0.04 0.07 0.07 0.06 0.05 0.04 0.04 0.04 0.03 0.02 0.02 0.03 0.03 0.04 0.04 0.03 0.02
0.07 0.04 0.01 0.00 0.00 0.01 0.02 0.01 0.02 0.02 0.03 0.07 0.06 0.02 0.01 0.02 0.02 0.01 0.01 0.01 0.02 0.03 0.05 0.06 0.06 0.03 0.02 0.03 0.04 0.03 0.02 0.02 0.01 0.01 0.01 0.01 0.02 0.02 0.02 0.03 0.04 0.04 0.03 0.03
0.05 0.03 0.01 0.00 0.00 0.00 0.00 0.01 0.03 0.05 0.05 0.08 0.07 0.03 0.02 0.02 0.01 0.01 0.01 0.02 0.04 0.06 0.07 0.05 0.03 0.01 0.01 0.01 0.01 0.01 0.00 0.00 0.00 0.01 0.01 0.02 0.02 0.03 0.03 0.04 0.06 0.07 0.07 0.06
0.03 0.01 0.01 0.00 0.00 0.00 0.00 0.01 0.02 0.03 0.08 0.10 0.08 0.04 0.02 0.01 0.01 0.01 0.02 0.03 0.06 0.06 0.05 0.03 0.01 0.00 0.00 0.00 0.00 0.00 0.00 0.00 0.00 0.01 0.01 0.02 0.02 0.03 0.04 0.07 0.17 0.22 0.18 0.14
0.01 0.00 0.01 0.01 0.00 0.00 0.00 0.00 0.01 0.01 0.03 0.06 0.05 0.03 0.02 0.01 0.01 0.02 0.03 0.04 0.04 0.04 0.03 0.02 0.00 0.00 0.00 0.00 0.00 0.00 0.00 0.00 0.01 0.02 0.02 0.03 0.03 0.03 0.05 0.08 0.23 0.39 0.33 0.30
0.01 0.00 0.00 0.00 0.00 0.01 0.02 0.02 0.04 0.04 0.02 0.02 0.03 0.03 0.02 0.02 0.02 0.03 0.03 0.03 0.03 0.03 0.01 0.00 0.00 0.00 0.00 0.00 0.00 0.00 0.01 0.01 0.02 0.03 0.03 0.03 0.04 0.04 0.04 0.06 0.12 0.16 0.20 0.28
0.00 0.00 0.00 0.00 0.00 0.01 0.02 0.03 0.05 0.05 0.03 0.02 0.02 0.02 0.02 0.02 0.02 0.02 0.02 0.02 0.02 0.01 0.00 0.00 0.00 0.00 0.00 0.00 0.00 0.01 0.02 0.03 0.04 0.04 0.05 0.06 0.07 0.09 0.08 0.05 0.05 0.06 0.09 0.16
0.00 0.00 0.00 0.00 0.00 0.01 0.02 0.03 0.04 0.04 0.03 0.01 0.01 0.01 0.01 0.01 0.01 0.01 0.02 0.02 0.01 0.01 0.00 0.00 0.00 0.00 0.00 0.00 0.00 0.01 0.02 0.03 0.05 0.06 0.08 0.09 0.10 0.12 0.13 0.14 0.10 0.06 0.05 0.09
0.00 0.00 0.00 0.01 0.01 0.01 0.02 0.02 0.03 0.02 0.01 0.00 0.00 0.01 0.01 0.01 0.01 0.02 0.02 0.01 0.01 0.00 0.00 0.00 0.00 0.00 0.00 0.00 0.01 0.01 0.02 0.04 0.07 0.09 0.09 0.10 0.11 0.13 0.14 0.14 0.13 0.11 0.08 0.07
0.01 0.01 0.00 0.00 0.00 0.01 0.01 0.02 0.02 0.01 0.01 0.00 0.01 0.01 0.01 0.01 0.01 0.01 0.00 0.00 0.00 0.00 0.00 0.00 0.00 0.00 0.00 0.01 0.02 0.02 0.03 0.06 0.09 0.11 0.11 0.12 0.13 0.16 0.17 0.18 0.17 0.16 0.15 0.14
0.01 0.01 0.00 0.00 0.01 0.01 0.02 0.02 0.02 0.01 0.01 0.01 0.00 0.00 0.00 0.00 0.00 0.00 0.00 0.00 0.00 0.00 0.00 0.00 0.01 0.01 0.01 0.01 0.03 0.04 0.05 0.06 0.09 0.11 0.13 0.15 0.18 0.21 0.22 0.25 0.24 0.21 0.16 0.15
0.01 0.01 0.01 0.01 0.02 0.02 0.03 0.02 0.01 0.01 0.00 0.00 0.00 0.00 0.00 0.00 0.00 0.00 0.00 0.00 0.00 0.00 0.00 0.00 0.02 0.02 0.01 0.02 0.04 0.05 0.08 0.10 0.12 0.16 0.17 0.17 0.21 0.23 0.25 0.27 0.25 0.22 0.16 0.12
0.00 0.00 0.00 0.01 0.03 0.04 0.03 0.01 0.01 0.00 0.00 0.00 0.00 0.00 0.00 0.00 0.00 0.00 0.00 0.00 0.00 0.01 0.00 0.01 0.03 0.02 0.01 0.03 0.07 0.10 0.14 0.17 0.17 0.16 0.16 0.18 0.20 0.19 0.21 0.23 0.23 0.20 0.18 0.16
0.01 0.00 0.01 0.02 0.03 0.02 0.01 0.01 0.01 0.00 0.00 0.00 0.00 0.00 0.00 0.00 0.00 0.00 0.00 0.00 0.00 0.02 0.01 0.02 0.03 0.03 0.04 0.07 0.14 0.18 0.19 0.19 0.19 0.19 0.19 0.20 0.22 0.22 0.21 0.22 0.22 0.21 0.19 0.18
0.01 0.02 0.02 0.03 0.02 0.01 0.01 0.01 0.01 0.01 0.00 0.00 0.00 0.00 0.00 0.00 0.00 0.00 0.00 0.00 0.00 0.01 0.01 0.02 0.04 0.09 0.12 0.17 0.19 0.17 0.17 0.19 0.21 0.23 0.24 0.25 0.25 0.23 0.22 0.23 0.23 0.23 0.23 0.21
0.03 0.03 0.04 0.04 0.02 0.01 0.01 0.01 0.01 0.01 0.00 0.00 0.00 0.00 0.00 0.00 0.00 0.00 0.00 0.00 0.01 0.03 0.03 0.02 0.06 0.14 0.17 0.18 0.15 0.14 0.16 0.19 0.22 0.24 0.26 0.27 0.29 0.30 0.27 0.26 0.28 0.26 0.25 0.24
0.04 0.04 0.04 0.03 0.01 0.01 0.00 0.01 0.01 0.01 0.00 0.00 0.00 0.00 0.00 0.01 0.01 0.01 0.01 0.01 0.02 0.04 0.03 0.03 0.08 0.14 0.16 0.13 0.12 0.13 0.17 0.21 0.25 0.27 0.28 0.29 0.32 0.34 0.33 0.31 0.30 0.29 0.29 0.26
0.04 0.04 0.04 0.02 0.01 0.01 0.01 0.01 0.01 0.01 0.01 0.01 0.01 0.01 0.01 0.02 0.02 0.02 0.02 0.03 0.05 0.06 0.04 0.04 0.08 0.11 0.13 0.12 0.12 0.16 0.21 0.26 0.32 0.34 0.33 0.33 0.33 0.33 0.33 0.34 0.33 0.30 0.28 0.27
0.06 0.05 0.04 0.03 0.03 0.03 0.03 0.03 0.02 0.02 0.02 0.03 0.03 0.03 0.03 0.03 0.04 0.05 0.05 0.05 0.06 0.06 0.05 0.05 0.08 0.11 0.11 0.13 0.17 0.23 0.27 0.31 0.39 0.43 0.41 0.37 0.34 0.33 0.32 0.33 0.34 0.34 0.31 0.27
0.08 0.07 0.06 0.05 0.05 0.05 0.05 0.05 0.05 0.05 0.05 0.05 0.05 0.05 0.05 0.05 0.06 0.06 0.05 0.05 0.05 0.06 0.06 0.07 0.08 0.11 0.13 0.17 0.22 0.27 0.30 0.31 0.36 0.39 0.37 0.35 0.34 0.34 0.33 0.34 0.35 0.34 0.31 0.27
0.09 0.08 0.07 0.06 0.07 0.07 0.07 0.07 0.07 0.08 0.07 0.07 0.08 0.07 0.06 0.07 0.06 0.06 0.06 0.06 0.07 0.07 0.08 0.10 0.11 0.14 0.17 0.21 0.25 0.28 0.30 0.32 0.37 0.44 0.44 0.41 0.37 0.36 0.36 0.36 0.37 0.34 0.31 0.29